Torna al catalogo

VELOX-P 2

AttivoScienzaSSO
NORAD 39438·PAYLOAD·🇸🇬 Singapore

Lanciato Nov 21, 2013 da Dombarovsky

Loading…

Prossimi Passaggi (prossime 24 ore)

TLE

AggiornatoSource: Space-Track

Epoca: Sep 14, 2026, 06:54 UTC

1 39438U 13066Y   26257.28771969  .00003060  00000-0  28829-3 0  9995
2 39438  97.8831 208.8142 0053775  48.7547 311.8287 14.93499578691131

Traccia VELOX-P 2 in tempo reale con AllMySat

Download on the App Store